パンスターズ彗星

C/2022 A2 ( PanSTARRS )

English version
Home page
Updated on October 12, 2023

---------------------------------------------------------------------

・ プロフィール

発見日 2022年1月10日
発見光度 20.5等
発見者 Pan-STARRS 2 telescope (Haleakala)

・ 写真集

・ 軌道要素

Epoch 2023 Feb. 25.0 TT = JDT 2460000.5
T 2023 Feb. 18.26475 TT                                 Rudenko
q   1.7353151            (2000.0)            P               Q
z  -0.0002013      Peri.   88.36562     +0.01737549     +0.99011847
 +/-0.0000006      Node   171.57954     -0.09144932     -0.13701674
e   1.0003493      Incl.  108.14683     +0.99565813     -0.02986354
>From 1170 observations 2022 Jan. 9-2023 July 4, mean residual 0".6.

・ 星図

・ 光度変化

        m1 = 3.5 + 5 logΔ + 18.5 log r(t - 10)  [  ,38]  (              〜2023年 3月28日)
        m1 = 4.5 + 5 logΔ + 15.0 log r(t - 30)  [38,  ]  (2023年 3月28日〜              )

---------------------------------------------------------------------

軌道要素はM.P.E.C. 2023-N16に掲載されたものです。
星図はステラナビゲータ Ver.10 (アストロアーツ) で作成したものです。
光度グラフはComet for Windowsで作成したものです。

---------------------------------------------------------------------

Copyright(C) Seiichi Yoshida (comet@aerith.net). All rights reserved.